{"data":{"norad_id":68996,"epoch":"2026-05-25T03:23:34.052640Z","epoch_age_seconds":73510,"freshness":"FRESH","line1":"1 68996U 26100S   26145.14136635  .00001997  00000+0  20668-3 0  9994","line2":"2 68996  97.7385  43.0076 0003133 204.8684 155.2383 14.91175587  3267","mean_motion":14.91175587,"eccentricity":0.0003133,"inclination_deg":97.7385,"raan_deg":43.0076,"arg_perigee_deg":204.8684,"mean_anomaly_deg":155.2383,"bstar":0.00020668,"rev_number":326,"period_min":96.568104558166,"perigee_km":592.08427897424,"apogee_km":596.45318840697,"semimajor_km":6972.4057336906,"source":"CELESTRAK","updated_at":"2026-05-25T13:38:08.810586Z"}}